UAL148 SBGR-KEWR

Flight info

Callsign UAL148
Flight time N/A
Altitude 14000
Route ISMOB UZ26 BIXAN/N0489F340 UZ26 ILKUS/N0497F330 MUGVI/N0495F340 PUDVO GENAT/N0487F360 UL462 NORWI BNE ZPATA PJM SAULT KEEKA/M083F380 L459 NUBUS MEGGG L456 DARUX L459 SAVIK/N0472F380 YAALE/N0471F390 Y497 MOUGH/N0469F380 Y497 SUBBS CYN GXU RBV V249 METRO
Aircraft B772/H-SDE2E3FGHIJ5LORVWXY/LB1D1

Departure

Time N/A
Airport São Paulo/Guarulhos–Governor André Franco Montoro International Airport (SBGR)

Arrival

Time 2026-05-05 17:35
Airport Newark Liberty International Airport (KEWR)
Time Latitude Longitude Altitude Speed Heading
2026-05-05 17:06 39.80393 -74.11264 10516 ft 301 kts 270°
2026-05-05 17:06 39.80509 -74.13962 10155 ft 293 kts 270°
2026-05-05 17:06 39.80619 -74.16565 10036 ft 283 kts 270°
2026-05-05 17:06 39.80664 -74.17627 10059 ft 281 kts 270°
2026-05-05 17:07 39.80770 -74.20168 10112 ft 281 kts 270°
2026-05-05 17:07 39.80874 -74.22680 10130 ft 282 kts 270°
2026-05-05 17:07 39.80979 -74.25254 10090 ft 285 kts 270°
2026-05-05 17:07 39.81085 -74.27840 10050 ft 285 kts 269°
2026-05-05 17:08 39.81187 -74.30400 10079 ft 282 kts 269°
2026-05-05 17:08 39.81289 -74.32932 10111 ft 278 kts 269°
2026-05-05 17:08 39.81391 -74.35417 10151 ft 277 kts 270°
2026-05-05 17:08 39.81492 -74.37932 10128 ft 284 kts 270°
2026-05-05 17:09 39.81644 -74.40586 10079 ft 302 kts 277°
2026-05-05 17:09 39.82458 -74.43148 10037 ft 312 kts 298°
2026-05-05 17:09 39.83933 -74.45226 10075 ft 321 kts 317°
2026-05-05 17:09 39.85799 -74.46889 10140 ft 327 kts 321°
2026-05-05 17:10 39.87736 -74.48499 10120 ft 333 kts 322°
2026-05-05 17:10 39.89702 -74.50123 10103 ft 333 kts 322°
2026-05-05 17:10 39.91641 -74.51748 10128 ft 327 kts 321°
2026-05-05 17:10 39.93506 -74.53332 10173 ft 312 kts 321°
2026-05-05 17:11 39.95306 -74.54875 10191 ft 323 kts 320°
2026-05-05 17:11 39.97216 -74.56530 10160 ft 333 kts 321°
2026-05-05 17:11 39.99196 -74.58115 10074 ft 335 kts 330°
2026-05-05 17:11 39.99992 -74.58510 10030 ft 341 kts 339°
2026-05-05 17:12 40.02334 -74.58745 10086 ft 349 kts
2026-05-05 17:12 40.04683 -74.57861 10176 ft 353 kts 18°
2026-05-05 17:12 40.06977 -74.56609 10236 ft 361 kts 19°
2026-05-05 17:12 40.09292 -74.55328 10205 ft 361 kts 19°
2026-05-05 17:13 40.11592 -74.54082 10142 ft 359 kts 17°
2026-05-05 17:13 40.13968 -74.53099 10039 ft 357 kts
2026-05-05 17:13 40.16397 -74.52556 9797 ft 352 kts
2026-05-05 17:13 40.18821 -74.52463 9557 ft 344 kts 352°
2026-05-05 17:14 40.21200 -74.52705 9299 ft 341 kts 349°
2026-05-05 17:14 40.23563 -74.53047 9046 ft 342 kts 348°
2026-05-05 17:14 40.25130 -74.53283 8876 ft 342 kts 348°
2026-05-05 17:14 40.27494 -74.53646 8644 ft 342 kts 348°
2026-05-05 17:15 40.30637 -74.54140 8309 ft 342 kts 348°
2026-05-05 17:15 40.32233 -74.54396 8141 ft 342 kts 348°
2026-05-05 17:15 40.34561 -74.54773 7888 ft 340 kts 348°
2026-05-05 17:15 40.36904 -74.55153 7654 ft 338 kts 348°
2026-05-05 17:16 40.39245 -74.55529 7390 ft 337 kts 348°
2026-05-05 17:16 40.41584 -74.55904 7128 ft 337 kts 348°
2026-05-05 17:16 40.43916 -74.56284 6884 ft 336 kts 348°
2026-05-05 17:16 40.45292 -74.56506 6741 ft 334 kts 348°
2026-05-05 17:17 40.47014 -74.56793 6568 ft 334 kts 348°
2026-05-05 17:17 40.49319 -74.57179 6308 ft 333 kts 348°
2026-05-05 17:17 40.51607 -74.57563 6176 ft 328 kts 348°
2026-05-05 17:17 40.53858 -74.57939 6104 ft 325 kts 348°
2026-05-05 17:18 40.56117 -74.58320 6062 ft 328 kts 348°
2026-05-05 17:18 40.58364 -74.58697 6001 ft 328 kts 348°
2026-05-05 17:18 40.60654 -74.58940 5982 ft 330 kts 355°
2026-05-05 17:18 40.62951 -74.58740 5976 ft 332 kts
2026-05-05 17:19 40.65213 -74.58101 5983 ft 333 kts 13°
2026-05-05 17:19 40.67394 -74.57138 5975 ft 335 kts 17°
2026-05-05 17:19 40.69593 -74.56072 5986 ft 336 kts 17°
2026-05-05 17:19 40.71796 -74.54991 5992 ft 338 kts 18°
2026-05-05 17:20 40.74005 -74.53905 5985 ft 339 kts 17°
2026-05-05 17:20 40.76194 -74.52827 5992 ft 341 kts 18°
2026-05-05 17:20 40.78414 -74.51716 5993 ft 342 kts 18°
2026-05-05 17:20 40.80636 -74.50601 5986 ft 335 kts 17°
2026-05-05 17:21 40.82763 -74.49534 5976 ft 320 kts 18°
2026-05-05 17:21 40.84777 -74.48518 5982 ft 307 kts 17°
2026-05-05 17:21 40.86756 -74.47507 5981 ft 305 kts 17°
2026-05-05 17:22 40.89574 -74.46074 5996 ft 302 kts 18°
2026-05-05 17:22 40.91499 -74.45088 5979 ft 290 kts 18°
2026-05-05 17:22 40.93345 -74.44129 5982 ft 278 kts 18°
2026-05-05 17:22 40.95095 -74.43221 6035 ft 274 kts 18°
2026-05-05 17:23 40.96885 -74.42295 5994 ft 274 kts 18°
2026-05-05 17:23 40.98638 -74.41389 5979 ft 269 kts 17°
2026-05-05 17:23 41.00364 -74.40486 5982 ft 266 kts 18°
2026-05-05 17:23 41.02093 -74.39588 5978 ft 267 kts 18°
2026-05-05 17:24 41.03819 -74.38644 5986 ft 269 kts 23°
2026-05-05 17:24 41.05421 -74.37339 5987 ft 271 kts 36°
2026-05-05 17:24 41.06642 -74.35465 5814 ft 275 kts 62°
2026-05-05 17:24 41.07353 -74.33114 5607 ft 274 kts 79°
2026-05-05 17:25 41.07570 -74.30609 5226 ft 273 kts 96°
2026-05-05 17:25 41.07423 -74.28962 5013 ft 269 kts 107°
2026-05-05 17:25 41.06646 -74.25857 4521 ft 267 kts 116°
2026-05-05 17:25 41.05969 -74.23578 4133 ft 257 kts 117°
2026-05-05 17:26 41.05320 -74.21433 3789 ft 246 kts 117°
2026-05-05 17:26 41.04689 -74.19370 3527 ft 242 kts 117°
2026-05-05 17:26 41.04053 -74.17289 3291 ft 236 kts 119°
2026-05-05 17:26 41.03252 -74.15503 3164 ft 220 kts 134°
2026-05-05 17:27 41.02298 -74.13983 3091 ft 213 kts 137°
2026-05-05 17:27 41.01334 -74.12513 3044 ft 209 kts 137°
2026-05-05 17:27 41.00369 -74.11079 3007 ft 208 kts 141°
2026-05-05 17:27 40.99226 -74.09990 3010 ft 198 kts 161°
2026-05-05 17:28 40.97938 -74.09322 2885 ft 201 kts 166°
2026-05-05 17:28 40.96616 -74.08733 2685 ft 199 kts 167°
2026-05-05 17:28 40.95336 -74.08198 2567 ft 190 kts 167°
2026-05-05 17:28 40.94102 -74.07701 2487 ft 184 kts 167°
2026-05-05 17:29 40.92853 -74.07212 2508 ft 190 kts 167°
2026-05-05 17:29 40.91558 -74.06717 2497 ft 194 kts 167°
2026-05-05 17:29 40.90269 -74.06212 2487 ft 191 kts 167°
2026-05-05 17:29 40.88992 -74.05716 2486 ft 192 kts 167°
2026-05-05 17:30 40.87708 -74.05574 2475 ft 183 kts 195°
2026-05-05 17:30 40.86509 -74.06097 2508 ft 181 kts 200°
2026-05-05 17:30 40.85357 -74.06658 2487 ft 172 kts 203°
2026-05-05 17:30 40.84298 -74.07272 2479 ft 160 kts 205°
2026-05-05 17:31 40.83287 -74.07902 2482 ft 160 kts 206°
2026-05-05 17:31 40.82284 -74.08539 2493 ft 159 kts 206°
2026-05-05 17:31 40.81296 -74.09165 2506 ft 155 kts 206°
2026-05-05 17:31 40.80316 -74.09792 2339 ft 153 kts 206°
2026-05-05 17:32 40.79383 -74.10387 2131 ft 145 kts 205°
2026-05-05 17:32 40.78534 -74.10934 1929 ft 129 kts 204°
2026-05-05 17:32 40.77730 -74.11446 1780 ft 130 kts 204°
2026-05-05 17:32 40.76926 -74.11962 1619 ft 129 kts 202°
2026-05-05 17:33 40.76111 -74.12485 1411 ft 129 kts 205°
2026-05-05 17:33 40.75313 -74.12990 1238 ft 127 kts 203°
2026-05-05 17:33 40.74451 -74.13297 1090 ft 130 kts 191°
2026-05-05 17:33 40.73588 -74.13628 976 ft 129 kts 204°
2026-05-05 17:34 40.72778 -74.14160 770 ft 131 kts 207°
2026-05-05 17:34 40.71968 -74.14708 553 ft 130 kts 207°
2026-05-05 17:34 40.71175 -74.15245 358 ft 129 kts 206°
2026-05-05 17:34 40.70360 -74.15760 171 ft 129 kts 206°
2026-05-05 17:35 40.69568 -74.16269 41 ft 125 kts 204°
2026-05-05 17:35 40.68905 -74.16697 27 ft 77 kts 206°
2026-05-05 17:35 40.68579 -74.16903 29 ft 41 kts 206°
2026-05-05 17:35 40.68374 -74.17046 27 ft 28 kts 215°
2026-05-05 17:36 40.68239 -74.17224 27 ft 27 kts 234°
2026-05-05 17:36 40.68153 -74.17403 26 ft 21 kts 249°
2026-05-05 17:36 40.68195 -74.17581 29 ft 21 kts 297°
2026-05-05 17:36 40.68274 -74.17634 26 ft 14 kts 15°
2026-05-05 17:37 40.68360 -74.17584 27 ft 14 kts 26°
2026-05-05 17:37 40.68444 -74.17529 27 ft 14 kts 26°
2026-05-05 17:37 40.68529 -74.17475 27 ft 14 kts 26°
2026-05-05 17:37 40.68613 -74.17421 28 ft 14 kts 26°
2026-05-05 17:38 40.68697 -74.17367 28 ft 14 kts 26°
2026-05-05 17:38 40.68784 -74.17363 27 ft 13 kts 322°
2026-05-05 17:38 40.68870 -74.17378 26 ft 14 kts 24°
2026-05-05 17:38 40.68938 -74.17335 26 ft 9 kts 25°
2026-05-05 17:39 40.68996 -74.17299 26 ft 9 kts 25°
2026-05-05 17:39 40.69053 -74.17263 26 ft 9 kts 25°
2026-05-05 17:39 40.69110 -74.17227 27 ft 9 kts 25°
2026-05-05 17:39 40.69165 -74.17203 26 ft 6 kts 345°
2026-05-05 17:40 40.69182 -74.17256 26 ft 6 kts 274°
2026-05-05 17:40 40.69185 -74.17308 26 ft 3 kts 275°
2026-05-05 17:40 40.69187 -74.17329 26 ft 1 kts 275°
2026-05-05 17:40 40.69187 -74.17335 26 ft 0 kts 275°
2026-05-05 17:41 40.69187 -74.17336 26 ft 0 kts 275°
2026-05-05 17:41 40.69187 -74.17337 26 ft 0 kts 275°